Weather History for KDYS - May, 2014

Change the Weather History Date:

Friday, May 16, 2014

  Actual Average Record
Temperature  
Mean Temperature 70 °F -  
Max Temperature 94 °F 85 °F 105 °F (2000)
Min Temperature 44 °F 63 °F 43 °F (2011)
Cooling Degree Days 4    
Growing Degree Days 20 (Base 50)    
Moisture  
Dew Point 25 °F    
Average Humidity 18    
Maximum Humidity 59    
Minimum Humidity 6    
Precipitation  
Precipitation 0.00 in - - ()
Sea Level Pressure  
Sea Level Pressure 29.90 in    
Wind  
Wind Speed 9 mph (SSW)    
Max Wind Speed 25 mph    
Max Gust Speed 34 mph    
Visibility 10 miles    
Events      
Averages and records for this station are not official NWS values.
T = Trace of Precipitation, MM = Missing Value Source: NWS Daily Summary

Daily Weather History Graph

Daily Weather History Graph

Search for Another Location

Airport or City:

Trip Planner

Search our weather history database for the weather conditions in past years. The results will help you decide how hot, cold, wet, or windy it might be!

Date:

Astronomy

May. 16, 2014 Rise Set
Actual Time 6:40 AM CDT 8:31 PM CDT
Civil Twilight 6:13 AM CDT 8:58 PM CDT
Nautical Twilight 5:40 AM CDT 9:31 PM CDT
Astronomical Twilight 5:06 AM CDT 10:06 PM CDT
Moon 10:40 PM CDT (5/16) 8:23 AM CDT (5/16)
Length of Visible Light 14h 45m
Length of Day
13h 50m
Waning Gibbous, 95% of the Moon is Illuminated
May 16
Waning Gibbous
May 21
Last Quarter
May 28
New
Jun 5
First Quarter
Jun 12
Full

Hourly Weather History & Observations

Time (CDT) Temp. Windchill Dew Point Humidity Pressure Visibility Wind Dir Wind Speed Gust Speed Precip Events Conditions
12:58 AM 66.0 °F - 18.3 °F 16% 30.08 in 10.0 mi Variable 2.3 mph - N/A   Clear
1:58 AM 63.9 °F - 21.2 °F 20% 29.98 in 10.0 mi Variable 3.5 mph - N/A   Clear
2:58 AM 54.3 °F - 26.2 °F 34% 29.99 in 10.0 mi NNE 1.2 mph - N/A   Clear
3:58 AM 52.3 °F - 26.8 °F 37% 29.99 in 10.0 mi Calm Calm - N/A   Clear
4:58 AM 47.1 °F - 29.3 °F 50% 30.03 in 10.0 mi Calm Calm - N/A   Clear
5:58 AM 50.2 °F - 29.7 °F 45% 30.02 in 10.0 mi Variable 2.3 mph - N/A   Clear
6:58 AM 44.8 °F 41.6 °F 31.1 °F 59% 30.04 in 10.0 mi South 5.8 mph - N/A   Clear
7:58 AM 52.2 °F - 33.3 °F 49% 30.03 in 10.0 mi South 2.3 mph - N/A   Clear
8:58 AM 68.2 °F - 31.5 °F 26% 30.01 in 10.0 mi South 6.9 mph - N/A   Clear
9:58 AM 71.8 °F - 29.8 °F 21% 29.99 in 10.0 mi SSW 9.2 mph - N/A   Clear
10:58 AM 76.5 °F - 31.8 °F 20% 29.98 in 10.0 mi South 13.8 mph 18.4 mph N/A   Clear
11:08 AM 78.8 °F - 32.0 °F 18% 30.07 in 10.0 mi SW 12.7 mph - N/A   Clear
11:58 AM 81.3 °F - 33.1 °F 18% 29.92 in 10.0 mi SSW 15.0 mph 20.7 mph N/A   Clear
12:58 PM 86.0 °F - 31.6 °F 14% 29.89 in 10.0 mi South 19.6 mph 21.9 mph N/A   Partly Cloudy
1:58 PM 89.4 °F - 27.1 °F 11% 29.85 in 10.0 mi South 15.0 mph 27.6 mph N/A   Mostly Cloudy
2:34 PM 91.4 °F - 23.0 °F 8% 29.95 in 10.0 mi SW 16.1 mph 28.8 mph N/A   Mostly Cloudy
2:51 PM 91.4 °F - 19.4 °F 7% 29.94 in 10.0 mi WSW 13.8 mph 31.1 mph N/A   Scattered Clouds
2:58 PM 90.5 °F - 22.1 °F 8% 29.83 in 10.0 mi SSW 18.4 mph 25.3 mph N/A   Mostly Cloudy
3:03 PM 91.4 °F - 23.0 °F 8% 29.94 in 10.0 mi South 15.0 mph 25.3 mph N/A   Mostly Cloudy
3:58 PM 92.5 °F - 22.3 °F 8% 29.79 in 10.0 mi SSW 11.5 mph 31.1 mph N/A   Mostly Cloudy
4:30 PM 95.0 °F - 21.2 °F 7% 29.88 in 10.0 mi WSW 18.4 mph 28.8 mph N/A   Partly Cloudy
4:40 PM 95.0 °F - 21.2 °F 7% 29.88 in 10.0 mi SW 16.1 mph 31.1 mph N/A   Partly Cloudy
4:58 PM 94.3 °F - 21.0 °F 7% 29.77 in 10.0 mi SW 19.6 mph 28.8 mph N/A   Clear
5:20 PM 95.0 °F - 21.2 °F 7% 29.86 in 10.0 mi SSW 19.6 mph 25.3 mph N/A   Clear
5:43 PM 93.2 °F - 21.2 °F 7% 29.86 in 10.0 mi SSW 17.3 mph 27.6 mph N/A   Clear
5:58 PM 94.3 °F - 18.1 °F 6% 29.75 in 10.0 mi SW 17.3 mph 26.5 mph N/A   Clear
6:58 PM 92.3 °F - 20.3 °F 7% 29.75 in 10.0 mi SW 12.7 mph - N/A   Clear
7:58 PM 87.4 °F - 25.0 °F 10% 29.73 in 10.0 mi South 10.4 mph - N/A   Clear
8:58 PM 84.2 °F - 24.8 °F 11% 29.73 in 10.0 mi South 13.8 mph - N/A   Clear
9:58 PM 81.1 °F - 24.4 °F 12% 29.73 in 10.0 mi SSW 15.0 mph 20.7 mph N/A   Clear
10:58 PM 79.3 °F - 26.6 °F 14% 29.73 in 10.0 mi South 21.9 mph 24.2 mph N/A   Clear
11:58 PM 77.4 °F - 26.8 °F 15% 29.72 in 10.0 mi South 25.3 mph 34.5 mph N/A   Clear